OneWeb SL0330

operational
NORAD ID: 49108 Int'l Des: 2021-075 Owner: ONEWEBN Country: UK Constellation: oneweb
LEOCIRCULARPOLARONEWEB_TYPE

OneWeb SL0330について

説明を読み込み中...

リアルタイム位置

3D地球を読み込み中...

次回通過

高度履歴

Altitude vs Time

uPlot chart will show altitude changes over time

軌道要素

1 49108U 21075AK 25306.36134816 .00000002 00000-0 -28903-4 0 9994
2 49108 87.9125 50.9870 0001918 93.8074 266.3277 13.17647801203753
Epoch: Nov 2, 2025 • Age: 18 hours

現在のステータス

高度 1208.3 km
速度 7.25 km/s
衛星直下点 -36.06°S, 34.02°W
打ち上げ日 Aug 21, 2021
運用期間 4.2 years
タイプ internet

技術仕様

分類 Payload
質量 148.00 kg
乾燥質量 140.00 kg
総質量 148.00 kg
長さ 1.30 m
直径 1.00 m
スパン 5.00 m
形状 Trapezoid+2 pan
製造者 ONEWUS
バスタイプ ARROW
フェーズステータス In Orbit
所有者/国 ONEWEBN/UK

大規模コンステレーション

Loading constellations...